リニア彗星

235P/LINEAR (2025)

English version
Home page
Updated on September 5, 2024

---------------------------------------------------------------------

・ プロフィール

・ 軌道要素

Epoch 2025 Dec. 31.0 TT = JDT 2461040.5
T 2025 Dec. 22.67919 TT                                 MPCW
q   1.9779717            (2000.0)            P               Q
n   0.15409589     Peri.  352.19684     -0.97610842     +0.20918739
a   3.4456832      Node   200.17085     -0.18901737     -0.95086862
e   0.4259566      Incl.    9.81187     -0.10716711     -0.22823126
P   6.40
From 215 observations 2002 Jan. 12-2018 May 19, mean residual 0".6.

・ 星図

・ 光度変化

        m1 = 6.0 + 5 logΔ + 25.0 log r

---------------------------------------------------------------------

軌道要素はM.P.E.C. 2018-K95に掲載されたものです。
星図はステラナビゲータ Ver.11 (アストロアーツ) で作成したものです。
光度グラフはComet for Windowsで作成したものです。

---------------------------------------------------------------------

Copyright(C) Seiichi Yoshida (comet@aerith.net). All rights reserved.